Location: ??? ????
(30.7227°N, 60.5693°E)
Time: 22:02:15
(UTC+00:00)

Daily predictions for brighter satellites

Satellite Brightness Start Highest point End
(mag) Time Altitude Azimuth Time Altitude Azimuth Time Altitude Azimuth
Cosmos 2369 3.7 13:19:51 10° SSW 13:25:28 77° ESE 13:31:09 10° NNE
Cosmos 2084 3.4 13:21:22 10° NNW 13:25:35 65° ENE 13:29:43 10° SE
Okean O Rocket 3.7 13:21:49 10° SSW 13:25:46 33° W 13:29:45 10° NW
Delta 168 4.0 13:23:27 10° SW 13:26:03 24° SSE 13:28:57 10° ESE
Cosmos 1356 Rocket 3.5 13:22:44 10° S 13:26:51 85° W 13:31:03 10° N
Cosmos 1464 Rocket 4.4 13:24:45 10° NNE 13:30:24 38° E 13:36:01 10° SSE
SeaSat 1 3.6 13:27:40 10° ESE 13:31:25 22° ENE 13:35:10 10° N
NOAA 12 4.5 13:26:32 10° SE 13:31:32 43° ENE 13:36:32 10° N
Cosmos 1607 4.1 13:26:21 10° NNW 13:32:26 53° ENE 13:38:33 10° SE
Envisat 3.6 13:28:16 10° SE 13:32:49 34° ENE 13:37:21 10° N
AQUARIUS 4.1 13:30:27 10° SSE 13:34:55 75° ENE 13:39:25 10° N
Cosmos 1238 Rocket 3.8 13:33:08 10° NNW 13:36:46 44° W 13:39:51 10° SSW
H-2A R/B 2.7 13:33:04 10° SSE 13:36:55 77° ENE 13:40:45 10° N
Cosmos 1633 Rocket 3.9 13:34:27 10° NNE 13:38:16 28° E 13:42:04 10° SE
Cosmos 1697 Rocket 2.8 13:32:57 10° SSW 13:38:36 87° WNW 13:44:17 10° NNE
Intelsat 5-3 Rocket 3.7 13:36:48 10° SW 13:39:08 18° S 13:40:54 10° SE
Hubble Space Telescope 3.0 13:37:10 10° S 13:39:19 14° SSE 13:41:29 10° ESE
Cosmos 2360 4.3 13:34:24 10° S 13:39:58 59° ESE 13:45:34 10° NNE
Lacrosse 4 Rocket 2.6 13:37:05 10° SW 13:40:58 40° WNW 13:44:49 10° N
Cosmos 2082 4.3 13:37:06 10° N 13:42:11 34° ENE 13:47:14 10° SE
Cosmos 1151 Rocket 3.6 13:38:28 10° SSE 13:42:26 36° E 13:46:27 10° NNE
ATLAS 5 CENTAUR R/B 2.6 13:37:23 10° NNW 13:43:28 59° ENE 13:50:16 10° SE
Cosmos 2278 3.7 13:38:46 10° SSW 13:44:25 81° ESE 13:50:07 10° NNE
CZ-4 R/B 2.5 13:41:48 10° SE 13:45:07 23° ENE 13:48:24 10° NNE
Cosmos 1328 Rocket 3.9 13:41:08 10° SSE 13:45:21 44° E 13:49:33 10° NNE
Cosmos 1515 Rocket 4.5 13:43:28 10° SSE 13:47:10 27° E 13:50:50 10° NNE
NOSS 2-3 (C) 4.3 13:43:36 10° SW 13:47:43 52° WNW 13:52:15 10° NNE
Sich 1 3.0 13:43:26 10° N 13:47:47 67° E 13:52:09 10° SSE
Cosmos 1666 Rocket 3.6 13:47:15 10° N 13:51:30 51° E 13:55:41 10° SSE
COSMO-SKYMED 1 2.5 13:47:30 10° NNE 13:51:49 66° ESE 13:56:07 10° S
CZ-3C R/B 3.3 13:49:11 10° WSW 13:54:13 22° SSW 13:57:31 10° SSE
Cosmos 2346 Rocket 4.5 13:55:26 10° S 14:01:33 60° E 14:07:38 10° NNE
Cosmos 1633 2.4 13:57:59 10° N 14:01:38 80° E 14:05:14 10° S
DELTA 2 R/B (1) 3.8 13:56:27 10° SW 14:01:55 56° SSE 14:05:32 21° ENE
Cosmos 158 Rocket 4.0 14:00:25 10° S 14:05:42 65° ESE 14:10:54 10° NNE
IUS-18 SRM-1 3.4 13:58:15 10° W 14:05:45 47° SSW 14:07:47 17° SE
Cosmos 2112 Rocket 4.2 14:00:45 10° SSW 14:05:54 75° WNW 14:11:08 10° NNE
Cosmos 1933 3.8 14:05:10 10° SSE 14:08:57 39° E 14:11:25 19° NNE
YAOGAN 1 3.1 14:06:11 10° SE 14:10:07 35° ENE 14:14:04 10° N
Meteor 2-11 Rocket 4.5 14:04:09 10° N 14:10:10 57° E 14:16:11 10° SSE
Cosmos 1680 Rocket 4.3 14:07:27 10° SSW 14:12:31 53° WNW 14:17:37 10° N
GPS 2-04 Rocket1 2.5 14:11:19 10° W 14:14:42 60° NNW 14:15:45 38° NE
GENESIS II 4.3 14:12:35 10° SSW 14:16:27 54° ESE 14:17:56 33° NE
CSL-04 Debris 4.4 14:11:28 10° SE 14:16:41 47° ENE 14:21:56 10° N
USA 116 4.3 14:12:17 10° NNE 14:17:13 82° ESE 14:22:30 10° S
Cosmos 1470 Rocket 3.7 14:18:17 10° N 14:22:38 49° E 14:26:57 10° SSE
YAOGAN 6 2.4 14:19:55 10° SSE 14:23:24 89° E 14:26:54 10° N
Cosmos 1862 3.7 14:20:55 10° NNW 14:24:51 63° W 14:28:48 10° S
Delta 7925 Rocket 4.3 14:19:26 10° W 14:25:04 58° S 14:29:23 24° ESE
Aurora 2 Rocket 4.2 14:24:58 10° SSW 14:28:13 22° SSE 14:29:23 20° SE
Cosmos 2034 Rocket 4.0 14:22:12 10° N 14:28:36 87° E 14:34:59 10° S
CSL-04 Rocket 3.5 14:26:32 10° SSE 14:31:51 66° ENE 14:37:08 10° N
ATLAS 5 CENTAUR R/B 2.8 14:29:27 10° SSW 14:33:29 30° SSE 14:33:29 30° SSE
COSMOS 2455 4.0 14:29:37 10° SSE 14:33:16 24° SE 14:33:16 24° SE
SL-16 R/B 2.5 14:34:21 10° S 14:39:40 43° ESE 14:39:52 43° E
Cosmos 1606 2.5 14:37:08 10° S 14:40:55 88° E 14:41:06 80° NNE
Cosmos 1980 Rocket 3.3 14:38:19 10° SW 14:43:39 43° WNW 14:49:03 10° N
Tsikada Rocket 4.3 14:38:25 10° SSW 14:44:42 68° W 14:51:05 10° N
BREEZE-M R/B 2.9 14:40:30 10° SW 14:46:37 75° NW 14:46:59 68° N
Cosmos 1634 Rocket 4.0 14:42:06 10° N 14:48:03 49° E 14:53:59 10° SSE
Cosmos 2322 Rocket 2.7 14:43:12 10° S 14:47:34 40° SE 14:47:34 40° SE
Cosmos 1624 Rocket 4.0 14:45:55 10° N 14:50:43 58° NE 14:50:43 58° NE
Cosmos 2056 Rocket 3.9 14:46:41 10° N 14:50:23 43° NNE 14:50:23 43° NNE
Cosmos 2297 Rocket 4.5 14:51:56 10° NW 14:56:23 24° WSW 15:00:50 10° SSW
Cosmos 2227 Rocket 4.3 14:52:02 10° NW 14:56:40 27° WSW 15:01:16 10° SSW
Cosmos 1400 Rocket 4.4 14:54:27 10° S 14:56:17 26° S 14:56:17 26° S
Centaur D-1AR AC-36 4.0 14:27:01 10° WSW 14:58:56 40° S 15:02:04 29° SE
Cosmos 2228 Rocket 3.7 14:58:30 10° SSW 15:02:51 55° W 15:04:13 38° NNW
Centaur D-1A AC-31 1.8 14:59:48 10° WSW 15:03:01 55° SSE 15:03:01 55° SSE
SeaSat 1 3.8 15:04:08 10° S 15:08:39 37° WSW 15:13:12 10° NW
ISS -0.7 15:07:43 10° SSW 15:07:56 12° SSW 15:07:56 12° SSW
CZ-4 R/B 4.0 15:16:53 10° SW 15:20:00 20° W 15:23:05 10° NW
Hubble Space Telescope 2.9 15:16:13 10° SW 15:17:54 22° SW 15:17:54 22° SW
Cosmos 724 4.4 15:17:23 10° NNW 15:23:08 68° WSW 15:23:12 68° WSW
ATLAS 2AS CENTAUR R/B 4.2 15:33:07 10° S 15:36:17 26° S 15:36:17 26° S
ATLAS 5 CENTAUR R/B 4.1 16:32:27 10° WSW 17:22:07 10° ESE 16:38:16 46° SSW
Cosmos 1980 Rocket 3.6 23:42:13 32° NE 23:43:00 33° ENE 23:48:03 10° SE
Milstar 3 Cent rocket 4.4 23:50:31 34° SSW 23:50:31 34° SSW 23:56:26 10° SSE
